Time,TemperatureF,DewpointF,PressureIn,WindDirection,WindDirectionDegrees,WindSpeedMPH,WindSpeedGustMPH,Humidity,HourlyPrecipIn,Conditions,Clouds,dailyrainin,SoftwareType,DateUTC
2013-08-02 00:02:00,62.7,59.7,29.91,WNW,295,0.0,0.0,90,0.00,,,0.00,Wunderground v.1.15,2013-08-02 05:02:00,
2013-08-02 00:08:00,62.8,60.1,29.91,WNW,295,0.0,0.0,91,0.00,,,0.00,Wunderground v.1.15,2013-08-02 05:08:00,
2013-08-02 00:14:00,62.9,60.2,29.90,WNW,295,0.0,0.0,91,0.00,,,0.00,Wunderground v.1.15,2013-08-02 05:14:00,
2013-08-02 00:20:00,62.9,60.2,29.90,WNW,295,0.0,0.0,91,0.00,,,0.00,Wunderground v.1.15,2013-08-02 05:20:00,
2013-08-02 00:26:00,63.0,60.3,29.90,WNW,295,0.0,0.0,91,0.00,,,0.00,Wunderground v.1.15,2013-08-02 05:26:00,
2013-08-02 00:32:00,63.0,60.3,29.90,WNW,295,0.0,0.0,91,0.00,,,0.00,Wunderground v.1.15,2013-08-02 05:32:00,
2013-08-02 00:38:00,63.1,60.4,29.90,WNW,295,0.0,0.0,91,0.00,,,0.00,Wunderground v.1.15,2013-08-02 05:38:00,
2013-08-02 00:44:00,63.1,60.1,29.90,WNW,295,0.0,0.0,90,0.00,,,0.00,Wunderground v.1.15,2013-08-02 05:44:00,
2013-08-02 00:50:00,63.3,60.6,29.90,WNW,295,0.0,0.0,91,0.00,,,0.00,Wunderground v.1.15,2013-08-02 05:50:00,
2013-08-02 00:56:00,63.4,60.7,29.89,WNW,295,0.0,0.0,91,0.00,,,0.00,Wunderground v.1.15,2013-08-02 05:56:00,
2013-08-02 01:02:00,63.4,60.4,29.89,WNW,295,0.0,0.0,90,0.00,,,0.00,Wunderground v.1.15,2013-08-02 06:02:00,
2013-08-02 01:08:00,63.5,60.2,29.89,WNW,295,0.0,0.0,89,0.00,,,0.00,Wunderground v.1.15,2013-08-02 06:08:00,
2013-08-02 01:14:00,63.6,60.3,29.89,WNW,295,0.0,0.0,89,0.00,,,0.00,Wunderground v.1.15,2013-08-02 06:14:00,
2013-08-02 01:20:00,63.7,60.4,29.89,WNW,295,0.0,0.0,89,0.00,,,0.00,Wunderground v.1.15,2013-08-02 06:20:00,
2013-08-02 01:26:00,63.8,60.5,29.88,WNW,295,0.0,0.0,89,0.00,,,0.00,Wunderground v.1.15,2013-08-02 06:26:00,
2013-08-02 01:32:00,63.8,60.5,29.88,WNW,295,0.0,0.0,89,0.00,,,0.00,Wunderground v.1.15,2013-08-02 06:32:00,
2013-08-02 01:38:00,63.8,60.5,29.88,WNW,295,0.0,0.0,89,0.00,,,0.00,Wunderground v.1.15,2013-08-02 06:38:00,
2013-08-02 01:44:00,63.8,60.2,29.88,WNW,295,0.0,0.0,88,0.00,,,0.00,Wunderground v.1.15,2013-08-02 06:44:00,
2013-08-02 01:50:00,63.9,60.3,29.88,WNW,295,0.0,0.0,88,0.00,,,0.00,Wunderground v.1.15,2013-08-02 06:50:00,
2013-08-02 01:56:00,63.9,60.3,29.87,WNW,295,0.0,0.0,88,0.00,,,0.00,Wunderground v.1.15,2013-08-02 06:56:00,
2013-08-02 02:02:00,63.8,60.2,29.87,WNW,295,0.0,0.0,88,0.00,,,0.00,Wunderground v.1.15,2013-08-02 07:02:00,
2013-08-02 02:08:00,63.6,60.0,29.87,WNW,295,0.0,0.0,88,0.00,,,0.00,Wunderground v.1.15,2013-08-02 07:08:00,
2013-08-02 02:14:00,63.5,59.9,29.87,WNW,295,0.0,0.0,88,0.00,,,0.00,Wunderground v.1.15,2013-08-02 07:14:00,
2013-08-02 02:20:00,63.4,59.8,29.87,WNW,295,0.0,0.0,88,0.00,,,0.00,Wunderground v.1.15,2013-08-02 07:20:00,
2013-08-02 02:26:00,63.1,59.8,29.88,WNW,295,0.0,0.0,89,0.00,,,0.00,Wunderground v.1.15,2013-08-02 07:26:00,
2013-08-02 02:32:00,62.9,59.6,29.88,WNW,295,0.0,0.0,89,0.00,,,0.00,Wunderground v.1.15,2013-08-02 07:32:00,
2013-08-02 02:38:00,62.7,59.4,29.87,WNW,295,0.0,0.0,89,0.00,,,0.00,Wunderground v.1.15,2013-08-02 07:38:00,
2013-08-02 02:44:00,62.6,59.6,29.87,WNW,295,0.0,0.0,90,0.00,,,0.00,Wunderground v.1.15,2013-08-02 07:44:00,
2013-08-02 02:50:00,62.5,59.5,29.87,WNW,295,0.0,0.0,90,0.00,,,0.00,Wunderground v.1.15,2013-08-02 07:50:00,
2013-08-02 02:58:00,62.2,59.5,29.87,WNW,295,0.0,0.0,91,0.00,,,0.00,Wunderground v.1.15,2013-08-02 07:58:00,
2013-08-02 03:04:00,62.1,59.4,29.87,WNW,295,0.0,0.0,91,0.00,,,0.00,Wunderground v.1.15,2013-08-02 08:04:00,
2013-08-02 03:10:00,62.0,59.3,29.87,WNW,295,0.0,0.0,91,0.00,,,0.00,Wunderground v.1.15,2013-08-02 08:10:00,
2013-08-02 03:16:00,62.1,59.4,29.86,WNW,295,0.0,0.0,91,0.00,,,0.00,Wunderground v.1.15,2013-08-02 08:16:00,
2013-08-02 03:22:00,62.4,59.4,29.87,WNW,295,0.0,0.0,90,0.00,,,0.00,Wunderground v.1.15,2013-08-02 08:22:00,
2013-08-02 03:28:00,62.7,59.7,29.87,WNW,295,0.0,0.0,90,0.00,,,0.00,Wunderground v.1.15,2013-08-02 08:28:00,
2013-08-02 03:34:00,62.9,59.6,29.87,WNW,295,0.0,0.0,89,0.00,,,0.00,Wunderground v.1.15,2013-08-02 08:34:00,
2013-08-02 03:40:00,63.1,60.1,29.87,WNW,295,0.0,0.0,90,0.00,,,0.00,Wunderground v.1.15,2013-08-02 08:40:00,
2013-08-02 03:46:00,63.1,59.8,29.86,WNW,295,0.0,0.0,89,0.00,,,0.00,Wunderground v.1.15,2013-08-02 08:46:00,
2013-08-02 03:52:00,63.2,59.9,29.86,WNW,295,0.0,1.0,89,0.00,,,0.00,Wunderground v.1.15,2013-08-02 08:52:00,
2013-08-02 03:58:00,63.3,59.7,29.86,WNW,295,0.0,1.0,88,0.00,,,0.00,Wunderground v.1.15,2013-08-02 08:58:00,
2013-08-02 04:04:00,63.5,59.9,29.86,WNW,295,0.0,0.0,88,0.00,,,0.00,Wunderground v.1.15,2013-08-02 09:04:00,
2013-08-02 04:10:00,63.6,60.0,29.86,WNW,295,0.0,0.0,88,0.00,,,0.00,Wunderground v.1.15,2013-08-02 09:10:00,
2013-08-02 04:16:00,63.7,60.1,29.86,WNW,295,0.0,0.0,88,0.00,,,0.00,Wunderground v.1.15,2013-08-02 09:16:00,
2013-08-02 04:22:00,63.8,60.2,29.86,WNW,295,0.0,1.0,88,0.00,,,0.00,Wunderground v.1.15,2013-08-02 09:22:00,
2013-08-02 04:28:00,63.8,60.2,29.86,WNW,295,0.0,1.0,88,0.00,,,0.00,Wunderground v.1.15,2013-08-02 09:28:00,
2013-08-02 04:34:00,63.8,60.2,29.86,WNW,295,0.0,0.0,88,0.00,,,0.00,Wunderground v.1.15,2013-08-02 09:34:00,
2013-08-02 04:40:00,64.0,60.1,29.86,WNW,295,0.0,0.0,87,0.00,,,0.00,Wunderground v.1.15,2013-08-02 09:40:00,
2013-08-02 04:46:00,64.2,60.2,29.86,WNW,295,0.0,0.0,87,0.00,,,0.00,Wunderground v.1.15,2013-08-02 09:46:00,
2013-08-02 04:52:00,64.3,60.3,29.86,WNW,295,0.0,0.0,87,0.00,,,0.00,Wunderground v.1.15,2013-08-02 09:52:00,
2013-08-02 04:58:00,64.3,60.7,29.86,WNW,295,0.0,0.0,88,0.00,,,0.00,Wunderground v.1.15,2013-08-02 09:58:00,
2013-08-02 05:04:00,64.2,60.6,29.85,WNW,295,0.0,0.0,88,0.00,,,0.00,Wunderground v.1.15,2013-08-02 10:04:00,
2013-08-02 05:10:00,64.2,60.6,29.86,WNW,295,0.0,0.0,88,0.00,,,0.00,Wunderground v.1.15,2013-08-02 10:10:00,
2013-08-02 05:16:00,64.1,60.8,29.86,WNW,295,0.0,0.0,89,0.00,,,0.00,Wunderground v.1.15,2013-08-02 10:16:00,
2013-08-02 05:22:00,64.1,60.8,29.85,WNW,295,0.0,0.0,89,0.00,,,0.00,Wunderground v.1.15,2013-08-02 10:22:00,
2013-08-02 05:28:00,64.1,60.8,29.85,WNW,295,0.0,0.0,89,0.00,,,0.00,Wunderground v.1.15,2013-08-02 10:28:00,
2013-08-02 05:34:00,64.1,61.1,29.85,WNW,295,0.0,0.0,90,0.00,,,0.00,Wunderground v.1.15,2013-08-02 10:34:00,
2013-08-02 05:40:00,64.1,61.1,29.84,WNW,295,0.0,0.0,90,0.00,,,0.00,Wunderground v.1.15,2013-08-02 10:40:00,
2013-08-02 05:46:00,64.1,61.1,29.84,WNW,295,0.0,0.0,90,0.00,,,0.00,Wunderground v.1.15,2013-08-02 10:46:00,
2013-08-02 05:52:00,64.0,61.0,29.84,WNW,295,0.0,0.0,90,0.00,,,0.00,Wunderground v.1.15,2013-08-02 10:52:00,
2013-08-02 05:58:00,64.0,61.0,29.84,WNW,295,0.0,1.0,90,0.00,,,0.00,Wunderground v.1.15,2013-08-02 10:58:00,
2013-08-02 06:04:00,64.0,61.0,29.84,WNW,295,0.0,0.0,90,0.00,,,0.00,Wunderground v.1.15,2013-08-02 11:04:00,
2013-08-02 06:10:00,64.0,61.0,29.84,WNW,295,0.0,0.0,90,0.00,,,0.00,Wunderground v.1.15,2013-08-02 11:10:00,
2013-08-02 06:16:00,64.1,61.1,29.84,WNW,295,0.0,0.0,90,0.00,,,0.00,Wunderground v.1.15,2013-08-02 11:16:00,
2013-08-02 06:22:00,64.2,61.2,29.84,WNW,295,0.0,0.0,90,0.00,,,0.00,Wunderground v.1.15,2013-08-02 11:22:00,
2013-08-02 06:28:00,64.3,61.3,29.84,WNW,295,0.0,0.0,90,0.00,,,0.00,Wunderground v.1.15,2013-08-02 11:28:00,
2013-08-02 06:34:00,64.4,61.4,29.84,WNW,295,0.0,0.0,90,0.00,,,0.00,Wunderground v.1.15,2013-08-02 11:34:00,
2013-08-02 06:40:00,64.6,61.6,29.84,WNW,295,0.0,0.0,90,0.00,,,0.00,Wunderground v.1.15,2013-08-02 11:40:00,
2013-08-02 06:46:00,64.8,61.8,29.84,WNW,295,0.0,0.0,90,0.00,,,0.00,Wunderground v.1.15,2013-08-02 11:46:00,
2013-08-02 06:52:00,65.2,62.2,29.84,WNW,295,0.0,0.0,90,0.00,,,0.00,Wunderground v.1.15,2013-08-02 11:52:00,
2013-08-02 06:58:00,65.6,62.3,29.83,WNW,295,0.0,1.0,89,0.00,,,0.00,Wunderground v.1.15,2013-08-02 11:58:00,
2013-08-02 07:04:00,65.9,62.6,29.84,WNW,295,1.0,2.0,89,0.00,,,0.00,Wunderground v.1.15,2013-08-02 12:04:00,
2013-08-02 07:10:00,66.2,62.5,29.85,SW,233,3.0,4.0,88,0.00,,,0.00,Wunderground v.1.15,2013-08-02 12:10:00,
2013-08-02 07:16:00,66.8,62.8,29.85,WSW,251,4.0,6.0,87,0.00,,,0.00,Wunderground v.1.15,2013-08-02 12:16:00,
2013-08-02 07:22:00,67.4,63.1,29.87,West,261,5.0,12.0,86,0.00,,,0.00,Wunderground v.1.15,2013-08-02 12:22:00,
2013-08-02 07:28:00,67.6,63.6,29.88,West,274,8.0,13.0,87,0.00,,,0.01,Wunderground v.1.15,2013-08-02 12:28:00,
2013-08-02 07:34:00,66.9,63.9,29.87,SW,223,8.0,9.0,90,0.33,,,0.05,Wunderground v.1.15,2013-08-02 12:34:00,
2013-08-02 07:40:00,66.7,64.0,29.85,WSW,242,7.0,9.0,91,0.23,,,0.07,Wunderground v.1.15,2013-08-02 12:40:00,
2013-08-02 07:46:00,66.5,64.1,29.85,WSW,251,4.0,5.0,92,0.11,,,0.08,Wunderground v.1.15,2013-08-02 12:46:00,
2013-08-02 07:52:00,66.5,64.4,29.85,WSW,249,2.0,2.0,93,0.05,,,0.08,Wunderground v.1.15,2013-08-02 12:52:00,
2013-08-02 07:58:00,66.5,64.4,29.85,SW,225,2.0,3.0,93,0.00,,,0.08,Wunderground v.1.15,2013-08-02 12:58:00,
2013-08-02 08:04:00,66.7,64.9,29.85,WSW,246,3.0,4.0,94,0.00,,,0.08,Wunderground v.1.15,2013-08-02 13:04:00,
2013-08-02 08:10:00,67.0,65.2,29.85,WSW,246,2.0,4.0,94,0.00,,,0.08,Wunderground v.1.15,2013-08-02 13:10:00,
2013-08-02 08:16:00,67.3,65.5,29.85,WSW,254,3.0,5.0,94,0.00,,,0.08,Wunderground v.1.15,2013-08-02 13:16:00,
2013-08-02 08:22:00,67.6,65.8,29.85,WSW,254,3.0,3.0,94,0.00,,,0.08,Wunderground v.1.15,2013-08-02 13:22:00,
2013-08-02 08:28:00,68.0,66.2,29.85,West,266,2.0,5.0,94,0.00,,,0.08,Wunderground v.1.15,2013-08-02 13:28:00,
2013-08-02 08:34:00,68.4,66.3,29.85,West,266,4.0,5.0,93,0.00,,,0.08,Wunderground v.1.15,2013-08-02 13:34:00,
2013-08-02 08:40:00,69.1,66.7,29.85,West,271,4.0,5.0,92,0.00,,,0.08,Wunderground v.1.15,2013-08-02 13:40:00,
2013-08-02 08:46:00,69.5,66.4,29.85,WSW,256,4.0,5.0,90,0.00,,,0.08,Wunderground v.1.15,2013-08-02 13:46:00,
2013-08-02 08:52:00,69.7,66.6,29.85,West,263,4.0,4.0,90,0.00,,,0.08,Wunderground v.1.15,2013-08-02 13:52:00,
2013-08-02 08:58:00,69.9,66.5,29.85,WSW,246,4.0,5.0,89,0.00,,,0.08,Wunderground v.1.15,2013-08-02 13:58:00,
2013-08-02 09:04:00,70.2,66.8,29.85,WSW,255,4.0,5.0,89,0.00,,,0.08,Wunderground v.1.15,2013-08-02 14:04:00,
2013-08-02 09:10:00,70.6,67.2,29.85,WSW,254,3.0,5.0,89,0.00,,,0.08,Wunderground v.1.15,2013-08-02 14:10:00,
2013-08-02 09:16:00,71.5,67.4,29.85,WSW,247,4.0,6.0,87,0.00,,,0.08,Wunderground v.1.15,2013-08-02 14:16:00,
2013-08-02 09:22:00,72.3,68.2,29.85,SW,220,4.0,4.0,87,0.00,,,0.08,Wunderground v.1.15,2013-08-02 14:22:00,
2013-08-02 09:28:00,72.9,67.8,29.85,SW,218,4.0,6.0,84,0.00,,,0.08,Wunderground v.1.15,2013-08-02 14:28:00,
2013-08-02 09:34:00,73.4,67.9,29.85,WSW,246,5.0,7.0,83,0.00,,,0.08,Wunderground v.1.15,2013-08-02 14:34:00,
2013-08-02 09:40:00,73.6,67.8,29.85,WSW,258,5.0,8.0,82,0.00,,,0.08,Wunderground v.1.15,2013-08-02 14:40:00,
2013-08-02 09:46:00,73.8,68.0,29.85,West,265,5.0,8.0,82,0.00,,,0.08,Wunderground v.1.15,2013-08-02 14:46:00,
2013-08-02 09:52:00,74.1,68.6,29.84,SW,234,6.0,6.0,83,0.00,,,0.08,Wunderground v.1.15,2013-08-02 14:52:00,
2013-08-02 09:58:00,74.2,68.0,29.85,WSW,257,6.0,9.0,81,0.00,,,0.08,Wunderground v.1.15,2013-08-02 14:58:00,
2013-08-02 10:04:00,74.2,68.0,29.84,West,275,7.0,10.0,81,0.00,,,0.08,Wunderground v.1.15,2013-08-02 15:04:00,
2013-08-02 10:10:00,74.5,67.9,29.85,West,259,7.0,7.0,80,0.00,,,0.08,Wunderground v.1.15,2013-08-02 15:10:00,
2013-08-02 10:16:00,74.9,69.0,29.85,WSW,243,6.0,9.0,82,0.00,,,0.08,Wunderground v.1.15,2013-08-02 15:16:00,
2013-08-02 10:22:00,75.4,69.2,29.85,WSW,257,7.0,13.0,81,0.00,,,0.08,Wunderground v.1.15,2013-08-02 15:22:00,
2013-08-02 10:28:00,75.3,68.3,29.85,WSW,254,8.0,13.0,79,0.00,,,0.08,Wunderground v.1.15,2013-08-02 15:28:00,
2013-08-02 10:34:00,75.4,68.8,29.85,West,277,7.0,9.0,80,0.00,,,0.08,Wunderground v.1.15,2013-08-02 15:34:00,
2013-08-02 10:40:00,75.9,69.3,29.85,WNW,283,6.0,11.0,80,0.00,,,0.08,Wunderground v.1.15,2013-08-02 15:40:00,
2013-08-02 10:46:00,76.1,69.1,29.85,West,273,7.0,11.0,79,0.00,,,0.08,Wunderground v.1.15,2013-08-02 15:46:00,
2013-08-02 10:52:00,76.6,70.3,29.85,West,264,6.0,8.0,81,0.00,,,0.08,Wunderground v.1.15,2013-08-02 15:52:00,
2013-08-02 10:58:00,77.0,70.0,29.85,West,275,6.0,10.0,79,0.00,,,0.08,Wunderground v.1.15,2013-08-02 15:58:00,
2013-08-02 11:04:00,77.4,69.6,29.85,West,261,6.0,7.0,77,0.00,,,0.08,Wunderground v.1.15,2013-08-02 16:04:00,
2013-08-02 11:10:00,77.7,70.7,29.85,SW,225,6.0,6.0,79,0.00,,,0.08,Wunderground v.1.15,2013-08-02 16:10:00,
2013-08-02 11:16:00,78.3,70.5,29.85,West,263,5.0,6.0,77,0.00,,,0.08,Wunderground v.1.15,2013-08-02 16:16:00,
2013-08-02 11:22:00,78.2,69.2,29.85,West,259,5.0,7.0,74,0.00,,,0.08,Wunderground v.1.15,2013-08-02 16:22:00,
2013-08-02 11:28:00,78.4,70.6,29.84,WSW,249,5.0,7.0,77,0.00,,,0.08,Wunderground v.1.15,2013-08-02 16:28:00,
2013-08-02 11:34:00,78.7,70.1,29.84,SW,227,4.0,5.0,75,0.00,,,0.08,Wunderground v.1.15,2013-08-02 16:34:00,
2013-08-02 11:40:00,79.1,70.5,29.84,WSW,256,4.0,7.0,75,0.00,,,0.08,Wunderground v.1.15,2013-08-02 16:40:00,
2013-08-02 11:46:00,79.3,70.7,29.84,SW,230,5.0,7.0,75,0.00,,,0.08,Wunderground v.1.15,2013-08-02 16:46:00,
2013-08-02 11:52:00,79.8,72.7,29.84,SW,219,5.0,6.0,79,0.00,,,0.08,Wunderground v.1.15,2013-08-02 16:52:00,
2013-08-02 11:58:00,80.2,70.4,29.84,West,262,4.0,6.0,72,0.00,,,0.08,Wunderground v.1.15,2013-08-02 16:58:00,
2013-08-02 12:04:00,80.3,70.4,29.84,WSW,243,6.0,6.0,72,0.00,,,0.08,Wunderground v.1.15,2013-08-02 17:04:00,
2013-08-02 12:10:00,80.5,71.0,29.84,WSW,252,6.0,8.0,73,0.00,,,0.08,Wunderground v.1.15,2013-08-02 17:10:00,
2013-08-02 12:16:00,80.5,69.8,29.84,West,261,7.0,7.0,70,0.00,,,0.08,Wunderground v.1.15,2013-08-02 17:16:00,
2013-08-02 12:22:00,80.6,70.3,29.84,West,259,8.0,8.0,71,0.00,,,0.08,Wunderground v.1.15,2013-08-02 17:22:00,
2013-08-02 12:28:00,81.0,71.1,29.84,West,273,8.0,12.0,72,0.00,,,0.08,Wunderground v.1.15,2013-08-02 17:28:00,
2013-08-02 12:34:00,81.1,70.8,29.84,SW,232,8.0,9.0,71,0.00,,,0.08,Wunderground v.1.15,2013-08-02 17:34:00,
2013-08-02 12:40:00,81.4,70.2,29.84,WNW,290,7.0,10.0,69,0.00,,,0.08,Wunderground v.1.15,2013-08-02 17:40:00,
2013-08-02 12:46:00,81.0,69.4,29.85,WSW,252,7.0,8.0,68,0.00,,,0.08,Wunderground v.1.15,2013-08-02 17:46:00,
2013-08-02 12:52:00,80.7,68.7,29.84,WSW,253,7.0,7.0,67,0.00,,,0.08,Wunderground v.1.15,2013-08-02 17:52:00,
2013-08-02 12:58:00,80.7,70.0,29.85,WSW,252,7.0,9.0,70,0.00,,,0.08,Wunderground v.1.15,2013-08-02 17:58:00,
2013-08-02 13:04:00,80.9,69.3,29.85,WSW,256,7.0,7.0,68,0.00,,,0.08,Wunderground v.1.15,2013-08-02 18:04:00,
2013-08-02 13:10:00,81.1,69.5,29.85,WSW,255,6.0,9.0,68,0.00,,,0.08,Wunderground v.1.15,2013-08-02 18:10:00,
2013-08-02 13:16:00,80.9,69.3,29.85,SW,214,7.0,10.0,68,0.00,,,0.08,Wunderground v.1.15,2013-08-02 18:16:00,
2013-08-02 13:22:00,80.7,68.3,29.85,West,266,8.0,8.0,66,0.00,,,0.08,Wunderground v.1.15,2013-08-02 18:22:00,
2013-08-02 13:28:00,81.2,70.9,29.85,West,276,7.0,8.0,71,0.00,,,0.08,Wunderground v.1.15,2013-08-02 18:28:00,
2013-08-02 13:34:00,81.2,69.2,29.85,West,263,7.0,12.0,67,0.00,,,0.08,Wunderground v.1.15,2013-08-02 18:34:00,
2013-08-02 13:40:00,81.2,69.6,29.85,WSW,258,8.0,12.0,68,0.00,,,0.08,Wunderground v.1.15,2013-08-02 18:40:00,
2013-08-02 13:46:00,81.6,70.9,29.84,SW,227,7.0,8.0,70,0.00,,,0.08,Wunderground v.1.15,2013-08-02 18:46:00,
2013-08-02 13:52:00,82.5,71.3,29.84,WSW,240,6.0,7.0,69,0.00,,,0.08,Wunderground v.1.15,2013-08-02 18:52:00,
2013-08-02 13:58:00,82.4,69.9,29.84,West,262,7.0,8.0,66,0.00,,,0.08,Wunderground v.1.15,2013-08-02 18:58:00,
2013-08-02 14:04:00,82.1,68.3,29.85,West,269,8.0,8.0,63,0.00,,,0.08,Wunderground v.1.15,2013-08-02 19:04:00,
2013-08-02 14:10:00,81.8,70.2,29.84,SW,219,7.0,8.0,68,0.00,,,0.08,Wunderground v.1.15,2013-08-02 19:10:00,
2013-08-02 14:16:00,83.0,71.3,29.84,West,269,6.0,8.0,68,0.00,,,0.08,Wunderground v.1.15,2013-08-02 19:16:00,
2013-08-02 14:22:00,83.1,70.1,29.84,WSW,254,8.0,8.0,65,0.00,,,0.08,Wunderground v.1.15,2013-08-02 19:22:00,
2013-08-02 14:28:00,83.2,71.1,29.84,WSW,252,7.0,8.0,67,0.00,,,0.08,Wunderground v.1.15,2013-08-02 19:28:00,
2013-08-02 14:34:00,83.3,69.8,29.84,WSW,238,5.0,6.0,64,0.00,,,0.08,Wunderground v.1.15,2013-08-02 19:34:00,
2013-08-02 14:40:00,82.7,69.7,29.84,West,269,6.0,9.0,65,0.00,,,0.08,Wunderground v.1.15,2013-08-02 19:40:00,
2013-08-02 14:46:00,82.1,70.5,29.83,WSW,253,6.0,6.0,68,0.00,,,0.08,Wunderground v.1.15,2013-08-02 19:46:00,
2013-08-02 14:52:00,81.8,71.1,29.83,West,263,4.0,9.0,70,0.00,,,0.08,Wunderground v.1.15,2013-08-02 19:52:00,
2013-08-02 14:58:00,80.0,69.7,29.83,WNW,288,6.0,9.0,71,0.00,,,0.08,Wunderground v.1.15,2013-08-02 19:58:00,
2013-08-02 15:04:00,76.7,70.1,29.83,WNW,291,9.0,9.0,80,0.13,,,0.10,Wunderground v.1.15,2013-08-02 20:04:00,
2013-08-02 15:10:00,74.8,68.6,29.83,NW,311,9.0,11.0,81,0.36,,,0.12,Wunderground v.1.15,2013-08-02 20:10:00,
2013-08-02 15:16:00,74.4,69.2,29.83,WNW,300,6.0,8.0,84,0.08,,,0.12,Wunderground v.1.15,2013-08-02 20:16:00,
2013-08-02 15:22:00,75.8,69.9,29.83,WNW,292,5.0,5.0,82,0.04,,,0.12,Wunderground v.1.15,2013-08-02 20:22:00,
2013-08-02 15:28:00,77.1,70.5,29.83,West,280,5.0,5.0,80,0.00,,,0.12,Wunderground v.1.15,2013-08-02 20:28:00,
2013-08-02 15:34:00,77.5,70.1,29.83,WNW,285,5.0,5.0,78,0.00,,,0.12,Wunderground v.1.15,2013-08-02 20:34:00,
2013-08-02 15:40:00,77.5,70.8,29.83,WNW,291,5.0,6.0,80,0.00,,,0.12,Wunderground v.1.15,2013-08-02 20:40:00,
2013-08-02 15:46:00,76.6,70.7,29.83,WNW,298,6.0,8.0,82,0.00,,,0.12,Wunderground v.1.15,2013-08-02 20:46:00,
2013-08-02 15:52:00,75.9,71.1,29.83,WNW,291,7.0,7.0,85,0.00,,,0.12,Wunderground v.1.15,2013-08-02 20:52:00,
2013-08-02 15:58:00,75.8,71.0,29.83,West,265,7.0,8.0,85,0.00,,,0.12,Wunderground v.1.15,2013-08-02 20:58:00,
2013-08-02 16:04:00,76.7,72.2,29.84,West,267,6.0,7.0,86,0.00,,,0.12,Wunderground v.1.15,2013-08-02 21:04:00,
2013-08-02 16:10:00,77.9,73.0,29.84,WSW,248,4.0,4.0,85,0.00,,,0.12,Wunderground v.1.15,2013-08-02 21:10:00,
2013-08-02 16:16:00,78.2,73.0,29.84,SSW,198,4.0,4.0,84,0.00,,,0.12,Wunderground v.1.15,2013-08-02 21:16:00,
2013-08-02 16:22:00,77.8,71.1,29.84,West,259,4.0,11.0,80,0.00,,,0.12,Wunderground v.1.15,2013-08-02 21:22:00,
2013-08-02 16:28:00,76.9,70.6,29.83,SW,216,6.0,11.0,81,0.00,,,0.12,Wunderground v.1.15,2013-08-02 21:28:00,
2013-08-02 16:34:00,76.8,70.9,29.83,WSW,240,5.0,6.0,82,0.00,,,0.12,Wunderground v.1.15,2013-08-02 21:34:00,
2013-08-02 16:40:00,77.1,70.5,29.83,WSW,246,4.0,5.0,80,0.00,,,0.12,Wunderground v.1.15,2013-08-02 21:40:00,
2013-08-02 16:46:00,77.5,69.3,29.83,SW,227,3.0,5.0,76,0.00,,,0.12,Wunderground v.1.15,2013-08-02 21:46:00,
2013-08-02 16:52:00,77.6,70.2,29.82,SW,225,2.0,3.0,78,0.00,,,0.12,Wunderground v.1.15,2013-08-02 21:52:00,
2013-08-02 16:58:00,77.8,69.6,29.82,SW,225,1.0,3.0,76,0.00,,,0.12,Wunderground v.1.15,2013-08-02 21:58:00,
2013-08-02 17:04:00,78.3,68.5,29.82,West,273,2.0,3.0,72,0.00,,,0.12,Wunderground v.1.15,2013-08-02 22:04:00,
2013-08-02 17:10:00,79.1,69.7,29.82,WNW,286,3.0,4.0,73,0.00,,,0.12,Wunderground v.1.15,2013-08-02 22:10:00,
2013-08-02 17:16:00,79.5,69.7,29.82,West,280,4.0,4.0,72,0.00,,,0.12,Wunderground v.1.15,2013-08-02 22:16:00,
2013-08-02 17:22:00,79.6,70.2,29.82,WSW,250,4.0,4.0,73,0.00,,,0.12,Wunderground v.1.15,2013-08-02 22:22:00,
2013-08-02 17:28:00,79.5,70.1,29.82,WSW,258,3.0,6.0,73,0.00,,,0.12,Wunderground v.1.15,2013-08-02 22:28:00,
2013-08-02 17:34:00,79.7,71.1,29.82,West,259,3.0,5.0,75,0.00,,,0.12,Wunderground v.1.15,2013-08-02 22:34:00,
2013-08-02 17:40:00,80.5,71.4,29.82,WSW,258,3.0,3.0,74,0.00,,,0.12,Wunderground v.1.15,2013-08-02 22:40:00,
2013-08-02 17:46:00,81.2,71.7,29.83,WSW,257,4.0,4.0,73,0.00,,,0.12,Wunderground v.1.15,2013-08-02 22:46:00,
2013-08-02 17:52:00,81.1,72.0,29.83,West,264,4.0,5.0,74,0.00,,,0.12,Wunderground v.1.15,2013-08-02 22:52:00,
2013-08-02 17:58:00,80.5,71.4,29.83,West,263,3.0,5.0,74,0.00,,,0.12,Wunderground v.1.15,2013-08-02 22:58:00,
2013-08-02 18:04:00,79.9,72.0,29.83,West,263,2.0,3.0,77,0.00,,,0.12,Wunderground v.1.15,2013-08-02 23:04:00,
2013-08-02 18:10:00,79.5,71.7,29.83,West,263,2.0,2.0,77,0.00,,,0.12,Wunderground v.1.15,2013-08-02 23:10:00,
2013-08-02 18:16:00,79.3,71.8,29.82,West,263,1.0,3.0,78,0.00,,,0.12,Wunderground v.1.15,2013-08-02 23:16:00,
2013-08-02 18:22:00,79.0,71.6,29.82,West,263,0.0,1.0,78,0.00,,,0.12,Wunderground v.1.15,2013-08-02 23:22:00,
2013-08-02 18:28:00,78.8,71.7,29.82,West,263,0.0,1.0,79,0.00,,,0.12,Wunderground v.1.15,2013-08-02 23:28:00,
2013-08-02 18:34:00,78.5,72.2,29.82,West,263,0.0,0.0,81,0.00,,,0.12,Wunderground v.1.15,2013-08-02 23:34:00,
2013-08-02 18:40:00,78.4,72.1,29.83,West,263,0.0,0.0,81,0.00,,,0.12,Wunderground v.1.15,2013-08-02 23:40:00,
2013-08-02 18:46:00,78.3,72.3,29.83,West,263,0.0,0.0,82,0.00,,,0.12,Wunderground v.1.15,2013-08-02 23:46:00,
2013-08-02 18:52:00,78.1,72.2,29.83,West,263,0.0,0.0,82,0.00,,,0.12,Wunderground v.1.15,2013-08-02 23:52:00,
2013-08-02 18:58:00,77.0,70.0,29.83,NE,44,1.0,6.0,79,0.00,,,0.12,Wunderground v.1.15,2013-08-02 23:58:00,
2013-08-02 19:04:00,75.3,69.4,29.84,NNW,346,2.0,2.0,82,0.00,,,0.13,Wunderground v.1.15,2013-08-03 00:04:00,
2013-08-02 19:10:00,74.6,70.1,29.83,NNW,346,1.0,2.0,86,0.20,,,0.15,Wunderground v.1.15,2013-08-03 00:10:00,
2013-08-02 19:16:00,73.9,69.4,29.84,NNW,346,1.0,4.0,86,0.07,,,0.15,Wunderground v.1.15,2013-08-03 00:16:00,
2013-08-02 19:22:00,73.4,69.0,29.84,NNW,338,1.0,1.0,86,1.88,,,0.18,Wunderground v.1.15,2013-08-03 00:22:00,
2013-08-02 19:28:00,72.6,68.8,29.83,NNW,329,3.0,7.0,88,0.20,,,0.21,Wunderground v.1.15,2013-08-03 00:28:00,
2013-08-02 19:34:00,72.0,68.6,29.84,NW,320,6.0,9.0,89,0.14,,,0.23,Wunderground v.1.15,2013-08-03 00:34:00,
2013-08-02 19:40:00,71.4,67.3,29.85,North,350,8.0,11.0,87,0.75,,,0.26,Wunderground v.1.15,2013-08-03 00:40:00,
2013-08-02 19:46:00,70.2,66.5,29.85,WNW,303,9.0,21.0,88,1.20,,,0.39,Wunderground v.1.15,2013-08-03 00:46:00,
2013-08-02 19:52:00,69.1,65.7,29.86,West,259,12.0,12.0,89,0.72,,,0.49,Wunderground v.1.15,2013-08-03 00:52:00,
2013-08-02 19:58:00,68.8,65.4,29.85,WNW,299,7.0,12.0,89,0.14,,,0.51,Wunderground v.1.15,2013-08-03 00:58:00,
2013-08-02 20:04:00,68.7,65.6,29.86,WSW,242,2.0,4.0,90,0.10,,,0.52,Wunderground v.1.15,2013-08-03 01:04:00,
2013-08-02 20:10:00,68.6,66.2,29.86,WSW,242,2.0,2.0,92,0.10,,,0.53,Wunderground v.1.15,2013-08-03 01:10:00,
2013-08-02 20:18:00,68.8,66.7,29.86,WSW,245,4.0,10.0,93,0.51,,,0.59,Wunderground v.1.15,2013-08-03 01:18:00,
2013-08-02 20:24:00,69.3,67.2,29.86,West,278,6.0,7.0,93,0.83,,,0.65,Wunderground v.1.15,2013-08-03 01:24:00,
2013-08-02 20:30:00,69.4,67.6,29.86,West,268,5.0,5.0,94,0.11,,,0.66,Wunderground v.1.15,2013-08-03 01:30:00,
2013-08-02 20:36:00,69.5,67.7,29.87,West,275,3.0,6.0,94,0.05,,,0.66,Wunderground v.1.15,2013-08-03 01:36:00,
2013-08-02 20:42:00,69.7,67.6,29.87,West,259,5.0,8.0,93,0.00,,,0.66,Wunderground v.1.15,2013-08-03 01:42:00,
2013-08-02 20:48:00,69.7,67.6,29.87,West,259,5.0,8.0,93,0.00,,,0.66,Wunderground v.1.15,2013-08-03 01:48:00,
2013-08-02 20:54:00,69.7,67.6,29.87,West,269,4.0,5.0,93,0.00,,,0.66,Wunderground v.1.15,2013-08-03 01:54:00,
2013-08-02 21:00:00,69.7,67.6,29.87,WNW,289,3.0,4.0,93,0.00,,,0.66,Wunderground v.1.15,2013-08-03 02:00:00,
2013-08-02 21:06:00,69.9,67.5,29.87,WNW,283,3.0,4.0,92,0.00,,,0.66,Wunderground v.1.15,2013-08-03 02:06:00,
2013-08-02 21:12:00,70.1,67.7,29.87,WNW,284,4.0,5.0,92,0.00,,,0.66,Wunderground v.1.15,2013-08-03 02:12:00,
2013-08-02 21:18:00,70.3,67.5,29.86,WNW,300,4.0,5.0,91,0.00,,,0.66,Wunderground v.1.15,2013-08-03 02:18:00,
2013-08-02 21:24:00,70.4,67.3,29.86,WNW,293,4.0,4.0,90,0.00,,,0.66,Wunderground v.1.15,2013-08-03 02:24:00,
2013-08-02 21:30:00,70.2,67.1,29.87,WNW,293,3.0,3.0,90,0.00,,,0.66,Wunderground v.1.15,2013-08-03 02:30:00,
2013-08-02 21:36:00,69.7,67.0,29.87,WNW,293,2.0,3.0,91,0.00,,,0.66,Wunderground v.1.15,2013-08-03 02:36:00,
2013-08-02 21:42:00,69.7,67.0,29.88,WNW,293,2.0,2.0,91,0.00,,,0.66,Wunderground v.1.15,2013-08-03 02:42:00,
2013-08-02 21:48:00,69.6,66.9,29.88,WNW,293,1.0,2.0,91,0.00,,,0.66,Wunderground v.1.15,2013-08-03 02:48:00,
2013-08-02 21:54:00,69.4,66.7,29.89,WNW,293,0.0,0.0,91,0.00,,,0.66,Wunderground v.1.15,2013-08-03 02:54:00,
2013-08-02 22:02:00,69.1,66.7,29.89,WNW,293,0.0,1.0,92,0.00,,,0.66,Wunderground v.1.15,2013-08-03 03:02:00,
2013-08-02 22:08:00,69.1,66.7,29.89,WNW,293,1.0,3.0,92,0.00,,,0.66,Wunderground v.1.15,2013-08-03 03:08:00,
2013-08-02 22:14:00,69.1,66.4,29.90,WNW,293,2.0,2.0,91,0.00,,,0.66,Wunderground v.1.15,2013-08-03 03:14:00,
2013-08-02 22:20:00,69.2,66.1,29.90,WNW,293,1.0,2.0,90,0.00,,,0.66,Wunderground v.1.15,2013-08-03 03:20:00,
2013-08-02 22:26:00,69.2,66.1,29.90,WNW,293,0.0,1.0,90,0.00,,,0.66,Wunderground v.1.15,2013-08-03 03:26:00,
2013-08-02 22:32:00,69.1,66.0,29.90,WNW,293,0.0,0.0,90,0.00,,,0.66,Wunderground v.1.15,2013-08-03 03:32:00,
2013-08-02 22:38:00,68.9,65.8,29.90,WNW,293,0.0,1.0,90,0.00,,,0.66,Wunderground v.1.15,2013-08-03 03:38:00,
2013-08-02 22:44:00,68.8,65.7,29.90,WNW,293,0.0,0.0,90,0.00,,,0.66,Wunderground v.1.15,2013-08-03 03:44:00,
2013-08-02 22:50:00,68.6,65.9,29.90,WNW,293,0.0,0.0,91,0.00,,,0.66,Wunderground v.1.15,2013-08-03 03:50:00,
2013-08-02 22:56:00,68.5,65.8,29.90,WNW,293,0.0,0.0,91,0.00,,,0.66,Wunderground v.1.15,2013-08-03 03:56:00,
2013-08-02 23:02:00,68.4,65.7,29.90,WNW,293,0.0,0.0,91,0.00,,,0.66,Wunderground v.1.15,2013-08-03 04:02:00,
2013-08-02 23:06:00,68.3,65.3,29.90,WNW,293,0.0,0.0,90,0.00,,,0.66,Wunderground v.1.15,2013-08-03 04:06:00,
2013-08-02 23:08:00,68.2,65.2,29.90,WNW,293,0.0,0.0,90,0.00,,,0.66,Wunderground v.1.15,2013-08-03 04:08:00,
2013-08-02 23:14:00,68.2,65.5,29.90,WNW,293,0.0,1.0,91,0.00,,,0.66,Wunderground v.1.15,2013-08-03 04:14:00,
2013-08-02 23:20:00,68.1,65.1,29.91,WNW,293,0.0,0.0,90,0.00,,,0.66,Wunderground v.1.15,2013-08-03 04:20:00,
2013-08-02 23:26:00,68.1,65.1,29.91,WNW,293,0.0,0.0,90,0.00,,,0.67,Wunderground v.1.15,2013-08-03 04:26:00,
2013-08-02 23:32:00,68.0,65.0,29.91,WNW,293,0.0,1.0,90,0.00,,,0.67,Wunderground v.1.15,2013-08-03 04:32:00,
2013-08-02 23:38:00,68.0,64.6,29.92,WNW,293,0.0,1.0,89,0.00,,,0.67,Wunderground v.1.15,2013-08-03 04:38:00,
2013-08-02 23:44:00,68.0,65.0,29.92,WNW,293,0.0,1.0,90,0.00,,,0.67,Wunderground v.1.15,2013-08-03 04:44:00,
2013-08-02 23:50:00,67.8,64.8,29.92,WNW,293,0.0,0.0,90,0.00,,,0.67,Wunderground v.1.15,2013-08-03 04:50:00,
2013-08-02 23:56:00,67.7,64.7,29.91,WNW,294,0.0,0.0,90,0.00,,,0.67,Wunderground v.1.15,2013-08-03 04:56:00,